IRIDIUM 123

Last updated on Sun Jun 21 2026 00:03:13 GMT+0000 (Coordinated Universal Time)

1 42804U 17039B 26171.42142207 .00000006 00000+0 -48707-5 0 9994 2 42804 86.3967 352.2849 0001863 87.4183 272.7226 14.34217511470414
UTC large
Height (km)
Speed (km/s)
/
Latitude / Longitude
Inclination (degrees)
Orbital Period (minutes)
Azimuth
Elevation
Range (km)
Doppler Factor

Next 0 passes for location: London (51.5072 / 0.1276)

No passes found over London.
IRIDIUM 123